Regional Weather Roundup
Issued by NWS

Home | Current Version | Previous Version | Text Only | Print | Product List | Glossary On
Versions: 1 2 3 4 5 6 7 8 9 10 11 12 13 14 15 16 17 18 19 20 21 22 23 24 25 26 27 28 29 30 31 32 33 34 35 36 37 38 39 40 41 42 43 44 45 46 47 48 49 50
203
ASUS44 KFWD 261201
RWRTX
NORTH TEXAS HOURLY WEATHER ROUNDUP
NATIONAL WEATHER SERVICE FORT WORTH TX
700 AM CDT THU MAY 26 2016

NOTE: "FAIR" INDICATES FEW OR NO CLOUDS BELOW 12,000 FEET WITH NO
SIGNIFICANT WEATHER AND/OR OBSTRUCTIONS TO VISIBILITY.

TXZ118-119-261300-
DALLAS/FORT WORTH METROPLEX

CITY           SKY/WX    TMP DP  RH WIND       PRES   REMARKS
DFW AIRPORT    CLOUDY    78  72  81 S16       29.91F
6HR MIN TEMP:  78; 6HR MAX TEMP:  80;

DALLAS LOVE    CLOUDY    78  73  84 S15G22    29.91F
6HR MIN TEMP:  78; 6HR MAX TEMP:  80;

FTW MEACHAM    CLOUDY    78  72  81 S15G25    29.90F
6HR MIN TEMP:  78; 6HR MAX TEMP:  79; 6HR PCP: TRACE;

DAL-EXECUTIVE  CLOUDY    76  72  87 S10G20    29.92F
6HR MIN TEMP:  76; 6HR MAX TEMP:  78;

FTW-ALLIANCE   CLOUDY    77  72  84 S16G23    29.90F
6HR MIN TEMP:  76; 6HR MAX TEMP:  79;

FTW-NAS-JRB    CLOUDY    78  73  84 S15G21    29.91F
6HR MIN TEMP:  78; 6HR MAX TEMP:  79; 6HR PCP: TRACE;

FTW-SPINKS     CLOUDY    77  72  83 S14G21    29.94S FOG
ARLINGTON      CLOUDY    80  73  79 S13       29.92S
6HR MIN TEMP:  79; 6HR MAX TEMP:  81;

GRAND PRAIRIE  MOCLDY    77  73  88 SE12      29.93S
ADDISON        CLOUDY    79  75  89 S13G24    29.93S
MESQUITE       LGT RAIN  75  73  94 SE12      29.94S
LANCASTER      CLOUDY    76  71  84 S9G18     29.94F
6HR MIN TEMP:  75; 6HR MAX TEMP:  78;

$$

TXZ091>094-102>105-117-120-121-131>134-261300-
NORTH CENTRAL TEXAS

CITY           SKY/WX    TMP DP  RH WIND       PRES   REMARKS
DECATUR        CLOUDY    76  73  93 S21G26    29.89F
6HR MIN TEMP:  75; 6HR MAX TEMP:  77;

DENTON         CLOUDY    77  72  84 S14       29.89F
6HR MIN TEMP:  76; 6HR MAX TEMP:  78;

MCKINNEY       CLOUDY    77  73  87 S14G21    29.92F
6HR MIN TEMP:  77; 6HR MAX TEMP:  78;

ROCKWALL       CLOUDY    76  74  93 S12G21    29.93S
6HR MIN TEMP:  75; 6HR MAX TEMP:  78;

TERRELL        CLOUDY    76  73  91 S12       29.95S
6HR MIN TEMP:  76; 6HR MAX TEMP:  79;

$$

TXZ083>090-098>101-113>116-127>130-139>142-154-155-261300-
WESTERN NORTH TEXAS

CITY           SKY/WX    TMP DP  RH WIND       PRES   REMARKS
WICHITA FALLS  LGT RAIN  75  73  93 SE12      29.85R FOG
6HR MIN TEMP:  75; 6HR MAX TEMP:  77; 6HR PCP: TRACE;

WF-KICKAPOO    MOCLDY    77  73  88 SE13      29.86S FOG
6HR MIN TEMP:  76; 6HR MAX TEMP:  79;

VERNON         MOCLDY    76  71  86 SE12      29.83S
6HR MIN TEMP:  75; 6HR MAX TEMP:  86;

ABILENE        CLOUDY    75  58  55 SW7       29.87R
6HR MIN TEMP:  75; 6HR MAX TEMP:  82; 6HR PCP: TRACE;

MINERAL WELLS  CLOUDY    75  73  93 SE10      29.87F
6HR MIN TEMP:  75; 6HR MAX TEMP:  79; 6HR PCP: TRACE;

STEPHENVILLE   CLOUDY    75  72  90 S9        29.94S
6HR MIN TEMP:  75; 6HR MAX TEMP:  77;

COMANCHE       TSTM      75  75 100 S12G18    29.90F
6HR MIN TEMP:  75; 6HR MAX TEMP:  77;

BROWNWOOD      CLOUDY    72  66  83 SE13      29.88F
COLEMAN        PTCLDY    69  63  81 S7        29.89S
6HR MIN TEMP:  69; 6HR MAX TEMP:  78; 6HR PCP:  0.04;

$$

TXZ143>147-156>162-174-175-261300-
CENTRAL TEXAS

CITY           SKY/WX    TMP DP  RH WIND       PRES   REMARKS
WACO           CLOUDY    77  73  87 S20       29.95R
6HR MIN TEMP:  77; 6HR MAX TEMP:  78; 6HR PCP: TRACE;

WACO-TSTC      TSTM      77  73  88 S9        29.95
WACO-MCGREGOR  LGT RAIN  76  75  97 S10       29.95R
6HR MIN TEMP:  76; 6HR MAX TEMP:  77; 6HR PCP:  0.02;

HILLSBORO      CLOUDY    75  73  91 S16       29.94F
6HR MIN TEMP:  75; 6HR MAX TEMP:  76;

CORSICANA      CLOUDY    78  72  81 SE9       29.96F
6HR MIN TEMP:  77; 6HR MAX TEMP:  79;

MEXIA          CLOUDY    76  75  98 S8        29.95F
6HR MIN TEMP:  75; 6HR MAX TEMP:  76;

HEARNE         CLOUDY    77  75  95 CALM      29.97S
6HR MIN TEMP:  76; 6HR MAX TEMP:  77;

TEMPLE         CLOUDY    76  75  97 S14       29.94F
6HR MIN TEMP:  76; 6HR MAX TEMP:  77; 6HR PCP: TRACE;

KILLEEN        CLOUDY    75  75 100 SE5       29.94R
KILLEEN-SKYLRK CLOUDY    76  75  97 S6        29.96R
6HR MIN TEMP:  75; 6HR MAX TEMP:  77; 6HR PCP:  0.01;

FORT HOOD      LGT RAIN  73  73 100 SE9       29.93R
HAMILTON       TSTM      75  75 100 SE8       29.95R
6HR MIN TEMP:  75; 6HR MAX TEMP:  77; 6HR PCP:  0.02;

$$

TXZ095>097-106>112-122>126-135>138-148>153-164>167-261300-
EAST TEXAS

CITY           SKY/WX    TMP DP  RH WIND       PRES   REMARKS
PARIS          CLOUDY    75  66  73 S13       29.97R
6HR MIN TEMP:  75; 6HR MAX TEMP:  79;

MINEOLA        CLOUDY    75  73  94 S7        29.98S
TYLER          CLOUDY    77  72  84 S10       29.98S
6HR MIN TEMP:  76; 6HR MAX TEMP:  79;

LONGVIEW       CLOUDY    75  74  96 SE7       30.00R
6HR MIN TEMP:  75; 6HR MAX TEMP:  77;

PALESTINE      CLOUDY    77  74  91 SE7       29.99S
JACKSONVILLE   CLOUDY    75  74  96 S7        30.03R
NACOGDOCHES    CLOUDY    75  73  94 S7        30.01R
6HR MIN TEMP:  73; 6HR MAX TEMP:  75;

LUFKIN         CLOUDY    76  74  93 SE8       30.00R
6HR MIN TEMP:  75; 6HR MAX TEMP:  76;

$$

SUPPLEMENTAL OBSERVATIONS (CENTRAL)

CITY           SKY/WX    TMP DP  RH WIND       PRES   REMARKS
$$

SUPPLEMENTAL OBSERVATIONS (WEST)

CITY           SKY/WX    TMP DP  RH WIND       PRES   REMARKS
$$

SUPPLEMENTAL OBSERVATIONS (EAST)

CITY           SKY/WX    TMP DP  RH WIND       PRES   REMARKS
$$

SUPPLEMENTAL OBSERVATIONS ARE A COLLECTION OF AUTOMATED INSTRUMENTS
THAT ARE MAINTAINED BY A VARIETY OF FEDERAL AND STATE AGENCIES.
CERTAIN ELEMENTS...SUCH AS HUMIDITY VALUES AND SUSTAINED WIND
SPEEDS...MAY BE APPROXIMATED.





USA.gov is the U.S. government's official web portal to all federal, state and local government web resources and services.